Regional Weather Roundup
Issued by NWS Charleston, SC

Current Version | Previous Version | Graphics & Text | Print | Product List | Glossary On
Versions: 1 2 3 4 5 6 7 8 9 10 11 12 13 14 15 16 17 18 19 20 21 22 23 24 25 26 27 28 29 30 31 32 33 34 35 36 37 38 39 40 41 42 43 44 45 46 47 48 49 50
000 ASUS42 KCHS 172225 RWRCHS REGIONAL WEATHER ROUNDUP NATIONAL WEATHER SERVICE CHARLESTON SC 600 PM EDT WED SEP 17 2014 NOTE: "FAIR" INDICATES FEW OR NO CLOUDS BELOW 12,000 FEET WITH NO SIGNIFICANT WEATHER AND/OR OBSTRUCTIONS TO VISIBILITY. NOT ALL STATIONS ARE QUALITY CONTROLLED BY THE NATIONAL WEATHER SERVICE. USE DATA WITH CAUTION...ESPECIALLY DEWPOINT OBSERVATIONS. SCZ027-030-031-034>040-042>050-172300- ...SOUTH CAROLINA... CITY SKY/WX TMP DP RH WIND PRES REMARKS N CHARLESTON CLOUDY 80 68 66 SE6 29.88R THUNDER WATERFRONT PRK N/A 81 N/A N/A E6 N/A FORT JOHNSON NOT AVBL MOUNT PLEASANT LGT RAIN 75 72 88 CALM 29.87S JOHNS ISLAND CLEAR 79 79 100 CALM 29.88R PINOPOLIS N/A 84 72 65 MISG 29.81S MONCKS CORNER TSTM 72 68 88 W7 29.90R SUMMERVILLE TSTM 68 68 100 NE3 29.90F BEAUFORT MCAS CLOUDY 81 74 79 N3 29.87R BEAUFORT ARPT FAIR 77 73 88 SE3 29.85S HILTON HEAD IS PTSUNNY 81 73 78 CALM 29.87F GEORGETOWN NOT AVBL WALTERBORO LGT RAIN 79 77 94 E6 29.87F ORANGEBURG PTSUNNY 71 66 84 N7 29.89F BARNWELL FAIR 75 72 88 E6 29.90R AIKEN FAIR 75 70 83 NE12 29.94R MANNING MOCLDY 79 72 78 N6 29.89S KINGSTREE NOT AVBL COLUMBIA PTSUNNY 77 67 71 N5 29.90R SUMTER MOSUNNY 77 67 71 N6 29.89R FLORENCE CLOUDY 79 67 66 NW7 29.89S MYRTLE BEACH MOSUNNY 82 66 57 S7 29.87S N MYRTLE BEACH PTSUNNY 81 66 60 S5 29.87S $$ GAZ063-065-086>088-099>101-113>116-118-119-134-136>141-150-172300- ...GEORGIA... CITY SKY/WX TMP DP RH WIND PRES REMARKS SAVANNAH ARPT PTSUNNY 82 72 69 S9 29.85S THUNDER HUNTER AAF PTSUNNY 82 72 71 S7 29.83F FORT STEWART MOSUNNY 76 67 74 SE2 29.83F STATESBORO NOT AVBL SYLVANIA RAIN 81 78 91 NE8 29.88R CLAXTON FAIR 86 77 74 CALM 29.84S HX 97 THOMSON MOSUNNY 82 76 83 NE6 29.92R AUGUSTA-BUSH PTSUNNY 75 69 81 CALM 29.87S THUNDER AUGUSTA-DANIEL PTSUNNY 76 68 76 SE8 29.89R THUNDER SWAINSBORO FAIR 90 70 51 NW7 29.86S HX 95 VIDALIA SUNNY 88 70 55 NW5 29.85S HX 92 ALMA MOSUNNY 86 67 52 W3 29.85R WAYCROSS SUNNY 92 72 52 N5 29.84S HX 99 JESUP FAIR 82 72 69 CALM 29.85S BRUNSWICK PTSUNNY 79 72 78 CALM 29.86F SAINT SIMONS PTSUNNY 82 74 76 E6 29.85F $$ SCZ027-028-034-036>038-045-046-048>050-GAZ119-141-172300- ...LAKE AND SUPPLEMENTAL COASTAL OBSERVATIONS... STATION/POSITION TIME TEMP WIND PRES WAVE SWELL AIR SEA DIR/SP/G HT/PER HT/PER/DIR (UTC) (F) (DEG/KT/KT) (MB) (FT/S) (FT/S/D) UPR LAKE MARION NOT AVBL WINYAH BAY 2200 81 80/ 3 1011.0S LAKE MURRAY 2100 75 30/ 2/ 5 1012.2S ACE BASIN NERRS 2200 80 130/ 1 1011.0S FORT PULASKI 2200 81 120/ 6/ 10 1011.3S SAPELO ISLAND 2200 86 180/ 6 1011.0F $$ ANZ835-935-AMZ111-154-330-350-352-354-374-450-454-472-172300- ...C-MAN AND BUOY OBSERVATIONS... STATION/POSITION TIME TEMP WIND PRES WAVE SWELL AIR SEA DIR/SP/G HT/PER HT/PER/DIR (UTC) (F) (DEG/KT/KT) (MB) (FT/S) (FT/S/D) FOLLY BEACH CMAN 2200 79 110/ 4/ 6 1012.2R BUOY 41004 2200 80 83 10/ 6/ 8 1011.0F 3/14 3/14 BUOY 41008 2200 81 85 140/ 4/ 6 1011.1F 2/15 2/ 80/15 5E ST. MARYS GA 2200 85 N/A 3/15 3/110/15 FRYING PAN BUOY NOT AVBL BUOY 41025 2200 76 20/ 16/ 21 1011.2S 6/14 3/ 90/14 CAPE LOOKOUT NC 2200 75 40/ 17/ 19 1011.9S BUOY 41002 2127 78 82 250/ 6/ 8 1010.1R 6/11 7/ 90/11 BUOY 41010 2200 80 85 320/ 8/ 8 1010.7F 5/14 5/100/14 BUOY 41012 NOT AVBL ST AUGUSTINE FL 2200 81 70/ 3/ 4 1011.8F CAPERS NEARSHORE 2100 81 80/ 8/ 10 N/A FRIPP NEARSHORE NOT AVBL $$

USA.gov is the U.S. government's official web portal to all federal, state and local government web resources and services.